Time,TemperatureF,DewpointF,PressureIn,WindDirection,WindDirectionDegrees,WindSpeedMPH,WindSpeedGustMPH,Humidity,HourlyPrecipIn,Conditions,Clouds,dailyrainin,SoftwareType,DateUTC
2013-07-27 00:01:00,62.3,58.7,29.99,West,274,0.0,0.0,88,0.00,,---,0.00,VWS V13.01,2013-07-27 04:01:00,
2013-07-27 00:06:00,62.2,58.9,29.99,West,274,0.0,0.0,89,0.00,,---,0.00,VWS V13.01,2013-07-27 04:06:00,
2013-07-27 00:11:00,62.1,58.8,29.99,West,274,0.0,0.0,89,0.00,,---,0.00,VWS V13.01,2013-07-27 04:11:00,
2013-07-27 00:16:00,62.0,58.7,29.99,West,274,0.0,0.0,89,0.00,,---,0.00,VWS V13.01,2013-07-27 04:16:00,
2013-07-27 00:21:00,61.8,58.5,29.99,West,274,0.0,0.0,89,0.00,,---,0.00,VWS V13.01,2013-07-27 04:21:00,
2013-07-27 00:26:00,61.6,58.3,29.99,West,274,0.0,0.0,89,0.00,,---,0.00,VWS V13.01,2013-07-27 04:26:00,
2013-07-27 00:31:00,61.5,58.5,29.98,West,274,0.0,0.0,90,0.00,,---,0.00,VWS V13.01,2013-07-27 04:31:00,
2013-07-27 00:37:00,61.3,58.3,29.98,West,274,0.0,0.0,90,0.00,,---,0.00,VWS V13.01,2013-07-27 04:37:00,
2013-07-27 00:42:00,61.1,58.2,29.98,West,274,0.0,0.0,90,0.00,,---,0.00,VWS V13.01,2013-07-27 04:42:00,
2013-07-27 00:47:00,61.0,58.0,29.98,West,274,0.0,0.0,90,0.00,,---,0.00,VWS V13.01,2013-07-27 04:47:00,
2013-07-27 00:52:00,60.9,58.3,29.98,West,274,0.0,0.0,91,0.00,,---,0.00,VWS V13.01,2013-07-27 04:52:00,
2013-07-27 00:57:00,60.8,58.2,29.98,West,274,0.0,0.0,91,0.00,,---,0.00,VWS V13.01,2013-07-27 04:57:00,
2013-07-27 01:02:00,60.7,58.4,29.98,West,274,0.0,0.0,92,0.00,,---,0.00,VWS V13.01,2013-07-27 05:02:00,
2013-07-27 01:07:00,60.7,58.4,29.98,West,274,0.0,0.0,92,0.00,,---,0.00,VWS V13.01,2013-07-27 05:07:00,
2013-07-27 01:12:00,60.6,58.3,29.97,West,274,0.0,0.0,92,0.00,,---,0.00,VWS V13.01,2013-07-27 05:12:00,
2013-07-27 01:17:00,60.5,58.2,29.97,West,274,0.0,0.0,92,0.00,,---,0.00,VWS V13.01,2013-07-27 05:17:00,
2013-07-27 01:22:00,60.4,58.1,29.97,West,274,0.0,0.0,92,0.00,,---,0.00,VWS V13.01,2013-07-27 05:22:00,
2013-07-27 01:27:00,60.4,58.1,29.97,West,274,0.0,0.0,92,0.00,,---,0.00,VWS V13.01,2013-07-27 05:27:00,
2013-07-27 01:32:00,60.3,58.3,29.97,West,274,0.0,0.0,93,0.00,,---,0.00,VWS V13.01,2013-07-27 05:32:00,
2013-07-27 01:37:00,60.3,58.3,29.97,West,274,0.0,0.0,93,0.00,,---,0.00,VWS V13.01,2013-07-27 05:37:00,
2013-07-27 01:42:00,60.2,58.2,29.97,West,274,0.0,0.0,93,0.00,,---,0.00,VWS V13.01,2013-07-27 05:42:00,
2013-07-27 01:47:00,60.1,58.1,29.97,West,274,0.0,0.0,93,0.00,,---,0.00,VWS V13.01,2013-07-27 05:47:00,
2013-07-27 01:52:00,60.0,58.0,29.96,West,274,0.0,0.0,93,0.00,,---,0.00,VWS V13.01,2013-07-27 05:52:00,
2013-07-27 01:57:00,60.0,58.0,29.96,West,274,0.0,0.0,93,0.00,,---,0.00,VWS V13.01,2013-07-27 05:57:00,
2013-07-27 02:02:00,60.0,58.0,29.96,West,274,0.0,1.0,93,0.00,,---,0.00,VWS V13.01,2013-07-27 06:02:00,
2013-07-27 02:07:00,60.0,58.3,29.96,West,274,0.0,1.0,94,0.00,,---,0.00,VWS V13.01,2013-07-27 06:07:00,
2013-07-27 02:12:00,60.0,58.3,29.96,West,274,0.0,0.0,94,0.00,,---,0.00,VWS V13.01,2013-07-27 06:12:00,
2013-07-27 02:17:00,60.0,58.3,29.96,West,274,0.0,0.0,94,0.00,,---,0.00,VWS V13.01,2013-07-27 06:17:00,
2013-07-27 02:22:00,60.0,58.3,29.96,West,274,0.0,0.0,94,0.00,,---,0.00,VWS V13.01,2013-07-27 06:22:00,
2013-07-27 02:27:00,60.0,58.3,29.95,West,274,0.0,1.0,94,0.00,,---,0.00,VWS V13.01,2013-07-27 06:27:00,
2013-07-27 02:32:00,60.0,58.3,29.95,West,274,0.0,0.0,94,0.00,,---,0.00,VWS V13.01,2013-07-27 06:32:00,
2013-07-27 02:37:00,60.0,58.3,29.95,West,274,0.0,0.0,94,0.00,,---,0.00,VWS V13.01,2013-07-27 06:37:00,
2013-07-27 02:42:00,60.0,58.3,29.95,West,274,0.0,0.0,94,0.00,,---,0.00,VWS V13.01,2013-07-27 06:42:00,
2013-07-27 02:47:00,60.0,58.3,29.95,West,274,0.0,0.0,94,0.00,,---,0.00,VWS V13.01,2013-07-27 06:47:00,
2013-07-27 02:52:00,60.0,58.3,29.94,West,274,0.0,0.0,94,0.00,,---,0.00,VWS V13.01,2013-07-27 06:52:00,
2013-07-27 02:57:00,60.0,58.3,29.94,West,274,0.0,0.0,94,0.00,,---,0.00,VWS V13.01,2013-07-27 06:57:00,
2013-07-27 03:02:00,60.0,58.3,29.94,West,274,0.0,0.0,94,0.00,,---,0.00,VWS V13.01,2013-07-27 07:02:00,
2013-07-27 03:07:00,60.0,58.3,29.94,West,274,0.0,0.0,94,0.00,,---,0.00,VWS V13.01,2013-07-27 07:07:00,
2013-07-27 03:12:00,60.0,58.3,29.94,West,274,0.0,0.0,94,0.00,,---,0.00,VWS V13.01,2013-07-27 07:12:00,
2013-07-27 03:17:00,60.0,58.3,29.94,West,274,0.0,0.0,94,0.00,,---,0.00,VWS V13.01,2013-07-27 07:17:00,
2013-07-27 03:22:00,60.0,58.3,29.94,West,274,0.0,0.0,94,0.00,,---,0.00,VWS V13.01,2013-07-27 07:22:00,
2013-07-27 03:27:00,60.0,58.3,29.94,West,274,0.0,0.0,94,0.00,,---,0.00,VWS V13.01,2013-07-27 07:27:00,
2013-07-27 03:32:00,59.9,58.2,29.93,West,274,0.0,0.0,94,0.00,,---,0.00,VWS V13.01,2013-07-27 07:32:00,
2013-07-27 03:37:00,59.8,57.8,29.93,West,274,0.0,0.0,93,0.00,,---,0.00,VWS V13.01,2013-07-27 07:37:00,
2013-07-27 03:42:00,59.8,58.1,29.93,West,274,0.0,0.0,94,0.00,,---,0.00,VWS V13.01,2013-07-27 07:42:00,
2013-07-27 03:47:00,59.8,58.1,29.93,West,274,0.0,0.0,94,0.00,,---,0.00,VWS V13.01,2013-07-27 07:47:00,
2013-07-27 03:52:00,59.7,57.7,29.93,West,274,0.0,0.0,93,0.00,,---,0.00,VWS V13.01,2013-07-27 07:52:00,
2013-07-27 03:57:00,59.6,57.9,29.93,West,274,0.0,0.0,94,0.00,,---,0.00,VWS V13.01,2013-07-27 07:57:00,
2013-07-27 04:02:00,59.6,57.9,29.93,West,274,0.0,0.0,94,0.00,,---,0.00,VWS V13.01,2013-07-27 08:02:00,
2013-07-27 04:07:00,59.5,57.8,29.92,West,274,0.0,0.0,94,0.00,,---,0.00,VWS V13.01,2013-07-27 08:07:00,
2013-07-27 04:12:00,59.5,57.8,29.92,West,274,0.0,0.0,94,0.00,,---,0.00,VWS V13.01,2013-07-27 08:12:00,
2013-07-27 04:17:00,59.4,57.7,29.92,West,274,0.0,0.0,94,0.00,,---,0.00,VWS V13.01,2013-07-27 08:17:00,
2013-07-27 04:22:00,59.4,57.7,29.92,West,274,0.0,0.0,94,0.00,,---,0.00,VWS V13.01,2013-07-27 08:22:00,
2013-07-27 04:27:00,59.3,57.6,29.92,West,274,0.0,0.0,94,0.00,,---,0.00,VWS V13.01,2013-07-27 08:27:00,
2013-07-27 04:32:00,59.2,57.5,29.92,West,274,0.0,0.0,94,0.00,,---,0.00,VWS V13.01,2013-07-27 08:32:00,
2013-07-27 04:37:00,59.2,57.5,29.92,West,274,0.0,0.0,94,0.00,,---,0.00,VWS V13.01,2013-07-27 08:37:00,
2013-07-27 04:42:00,59.2,57.5,29.92,West,274,0.0,0.0,94,0.00,,---,0.00,VWS V13.01,2013-07-27 08:42:00,
2013-07-27 04:47:00,59.2,57.5,29.92,West,274,0.0,0.0,94,0.00,,---,0.00,VWS V13.01,2013-07-27 08:47:00,
2013-07-27 04:52:00,59.1,57.4,29.92,West,274,0.0,0.0,94,0.00,,---,0.00,VWS V13.01,2013-07-27 08:52:00,
2013-07-27 04:57:00,59.1,57.4,29.92,West,274,0.0,0.0,94,0.00,,---,0.00,VWS V13.01,2013-07-27 08:57:00,
2013-07-27 05:02:00,59.1,57.4,29.92,West,274,0.0,0.0,94,0.00,,---,0.00,VWS V13.01,2013-07-27 09:02:00,
2013-07-27 05:07:00,59.2,57.8,29.92,West,274,0.0,0.0,95,0.00,,---,0.00,VWS V13.01,2013-07-27 09:07:00,
2013-07-27 05:12:00,59.2,57.8,29.92,West,274,0.0,0.0,95,0.00,,---,0.00,VWS V13.01,2013-07-27 09:12:00,
2013-07-27 05:17:00,59.2,57.8,29.92,West,274,0.0,0.0,95,0.00,,---,0.00,VWS V13.01,2013-07-27 09:17:00,
2013-07-27 05:22:00,59.2,57.8,29.92,West,274,0.0,0.0,95,0.00,,---,0.00,VWS V13.01,2013-07-27 09:22:00,
2013-07-27 05:27:00,59.2,57.8,29.91,West,274,0.0,0.0,95,0.00,,---,0.00,VWS V13.01,2013-07-27 09:27:00,
2013-07-27 05:32:00,59.3,57.9,29.91,West,274,0.0,0.0,95,0.00,,---,0.00,VWS V13.01,2013-07-27 09:32:00,
2013-07-27 05:37:00,59.3,57.9,29.92,West,274,0.0,0.0,95,0.00,,---,0.00,VWS V13.01,2013-07-27 09:37:00,
2013-07-27 05:42:00,59.3,57.6,29.92,West,274,0.0,0.0,94,0.00,,---,0.00,VWS V13.01,2013-07-27 09:42:00,
2013-07-27 05:47:00,59.3,57.6,29.92,West,274,0.0,0.0,94,0.00,,---,0.00,VWS V13.01,2013-07-27 09:47:00,
2013-07-27 05:52:00,59.3,57.9,29.92,West,274,0.0,0.0,95,0.00,,---,0.00,VWS V13.01,2013-07-27 09:52:00,
2013-07-27 05:57:00,59.3,57.6,29.92,West,274,0.0,0.0,94,0.00,,---,0.00,VWS V13.01,2013-07-27 09:57:00,
2013-07-27 06:02:00,59.2,57.8,29.92,West,274,0.0,0.0,95,0.00,,---,0.00,VWS V13.01,2013-07-27 10:02:00,
2013-07-27 06:07:00,59.3,57.9,29.92,West,274,0.0,0.0,95,0.00,,---,0.00,VWS V13.01,2013-07-27 10:07:00,
2013-07-27 06:12:00,59.3,57.9,29.92,West,274,0.0,0.0,95,0.00,,---,0.00,VWS V13.01,2013-07-27 10:12:00,
2013-07-27 06:17:00,59.3,57.9,29.92,West,274,0.0,0.0,95,0.00,,---,0.00,VWS V13.01,2013-07-27 10:17:00,
2013-07-27 06:22:00,59.3,57.9,29.92,West,274,0.0,0.0,95,0.00,,---,0.00,VWS V13.01,2013-07-27 10:22:00,
2013-07-27 06:27:00,59.4,58.0,29.92,West,274,0.0,0.0,95,0.00,,---,0.00,VWS V13.01,2013-07-27 10:27:00,
2013-07-27 06:32:00,59.4,58.0,29.92,West,274,0.0,0.0,95,0.00,,---,0.00,VWS V13.01,2013-07-27 10:32:00,
2013-07-27 06:37:00,59.5,58.1,29.92,West,274,0.0,0.0,95,0.00,,---,0.00,VWS V13.01,2013-07-27 10:37:00,
2013-07-27 06:42:00,59.6,58.2,29.92,West,274,0.0,0.0,95,0.00,,---,0.00,VWS V13.01,2013-07-27 10:42:00,
2013-07-27 06:47:00,59.6,58.2,29.92,West,274,0.0,0.0,95,0.00,,---,0.00,VWS V13.01,2013-07-27 10:47:00,
2013-07-27 06:52:00,59.8,58.4,29.92,West,274,0.0,0.0,95,0.00,,---,0.00,VWS V13.01,2013-07-27 10:52:00,
2013-07-27 06:57:00,59.9,58.5,29.93,West,274,0.0,0.0,95,0.00,,---,0.00,VWS V13.01,2013-07-27 10:57:00,
2013-07-27 07:02:00,60.0,58.6,29.93,West,274,0.0,0.0,95,0.00,,---,0.00,VWS V13.01,2013-07-27 11:02:00,
2013-07-27 07:07:00,60.1,58.7,29.92,West,274,0.0,0.0,95,0.00,,---,0.00,VWS V13.01,2013-07-27 11:07:00,
2013-07-27 07:12:00,60.2,58.8,29.93,West,274,0.0,0.0,95,0.00,,---,0.00,VWS V13.01,2013-07-27 11:12:00,
2013-07-27 07:17:00,60.4,59.0,29.93,West,274,0.0,0.0,95,0.00,,---,0.00,VWS V13.01,2013-07-27 11:17:00,
2013-07-27 07:22:00,60.6,59.2,29.93,West,274,0.0,0.0,95,0.00,,---,0.00,VWS V13.01,2013-07-27 11:22:00,
2013-07-27 07:27:00,60.9,59.5,29.93,West,274,0.0,0.0,95,0.00,,---,0.00,VWS V13.01,2013-07-27 11:27:00,
2013-07-27 07:32:00,61.3,59.9,29.93,West,274,0.0,0.0,95,0.00,,---,0.00,VWS V13.01,2013-07-27 11:32:00,
2013-07-27 07:37:00,61.7,60.3,29.93,West,274,0.0,0.0,95,0.00,,---,0.00,VWS V13.01,2013-07-27 11:37:00,
2013-07-27 07:42:00,62.1,60.4,29.93,West,274,1.0,1.0,94,0.00,,---,0.00,VWS V13.01,2013-07-27 11:42:00,
2013-07-27 07:47:00,62.6,60.5,29.93,West,274,0.0,2.0,93,0.00,,---,0.00,VWS V13.01,2013-07-27 11:47:00,
2013-07-27 07:52:00,63.0,60.6,29.93,West,274,0.0,1.0,92,0.00,,---,0.00,VWS V13.01,2013-07-27 11:52:00,
2013-07-27 07:57:00,63.5,61.1,29.93,West,274,0.0,1.0,92,0.00,,---,0.00,VWS V13.01,2013-07-27 11:57:00,
2013-07-27 08:02:00,63.9,60.9,29.93,West,274,0.0,0.0,90,0.00,,---,0.00,VWS V13.01,2013-07-27 12:02:00,
2013-07-27 08:07:00,64.3,61.3,29.93,West,274,0.0,1.0,90,0.00,,---,0.00,VWS V13.01,2013-07-27 12:07:00,
2013-07-27 08:12:00,64.6,61.3,29.93,West,274,0.0,1.0,89,0.00,,---,0.00,VWS V13.01,2013-07-27 12:12:00,
2013-07-27 08:17:00,64.9,61.6,29.93,West,274,0.0,1.0,89,0.00,,---,0.00,VWS V13.01,2013-07-27 12:17:00,
2013-07-27 08:22:00,65.2,61.6,29.93,West,274,0.0,0.0,88,0.00,,---,0.00,VWS V13.01,2013-07-27 12:22:00,
2013-07-27 08:27:00,65.7,61.7,29.93,West,274,0.0,0.0,87,0.00,,---,0.00,VWS V13.01,2013-07-27 12:27:00,
2013-07-27 08:33:00,66.2,62.2,29.93,West,274,0.0,1.0,87,0.00,,---,0.00,VWS V13.01,2013-07-27 12:33:00,
2013-07-27 08:38:00,66.6,62.3,29.93,West,274,0.0,1.0,86,0.00,,---,0.00,VWS V13.01,2013-07-27 12:38:00,
2013-07-27 08:43:00,66.9,62.2,29.93,West,274,0.0,0.0,85,0.00,,---,0.00,VWS V13.01,2013-07-27 12:43:00,
2013-07-27 08:48:00,67.3,62.6,29.93,West,274,0.0,1.0,85,0.00,,---,0.00,VWS V13.01,2013-07-27 12:48:00,
2013-07-27 08:53:00,67.7,62.7,29.93,West,274,0.0,0.0,84,0.00,,---,0.00,VWS V13.01,2013-07-27 12:53:00,
2013-07-27 08:57:00,68.1,62.8,29.93,West,274,0.0,1.0,83,0.00,,---,0.00,VWS V13.01,2013-07-27 12:57:00,
2013-07-27 09:02:00,68.5,63.1,29.93,West,274,1.0,1.0,83,0.00,,---,0.00,VWS V13.01,2013-07-27 13:02:00,
2013-07-27 09:07:00,69.0,62.6,29.93,West,274,0.0,1.0,80,0.00,,---,0.00,VWS V13.01,2013-07-27 13:07:00,
2013-07-27 09:12:00,69.9,64.2,29.92,NNW,342,0.0,2.0,82,0.00,,---,0.00,VWS V13.01,2013-07-27 13:12:00,
2013-07-27 09:17:00,71.0,64.9,29.92,WSW,245,0.0,2.0,81,0.00,,---,0.00,VWS V13.01,2013-07-27 13:17:00,
2013-07-27 09:23:00,72.0,65.9,29.92,WSW,244,3.0,4.0,81,0.00,,---,0.00,VWS V13.01,2013-07-27 13:23:00,
2013-07-27 09:28:00,72.6,65.7,29.92,WSW,244,0.0,4.0,79,0.00,,---,0.00,VWS V13.01,2013-07-27 13:28:00,
2013-07-27 09:33:00,73.0,65.0,29.92,WSW,244,0.0,3.0,76,0.00,,---,0.00,VWS V13.01,2013-07-27 13:33:00,
2013-07-27 09:38:00,73.2,65.2,29.92,WSW,244,0.0,3.0,76,0.00,,---,0.00,VWS V13.01,2013-07-27 13:38:00,
2013-07-27 09:43:00,73.1,65.1,29.92,WSW,244,0.0,3.0,76,0.00,,---,0.00,VWS V13.01,2013-07-27 13:43:00,
2013-07-27 09:48:00,73.1,65.1,29.92,South,189,1.0,3.0,76,0.00,,---,0.00,VWS V13.01,2013-07-27 13:48:00,
2013-07-27 09:53:00,73.2,65.6,29.92,SSE,154,1.0,2.0,77,0.00,,---,0.00,VWS V13.01,2013-07-27 13:53:00,
2013-07-27 09:58:00,73.3,66.0,29.92,South,190,2.0,4.0,78,0.00,,---,0.00,VWS V13.01,2013-07-27 13:58:00,
2013-07-27 10:03:00,73.1,66.6,29.92,SW,225,2.0,3.0,80,0.00,,---,0.00,VWS V13.01,2013-07-27 14:03:00,
2013-07-27 10:08:00,72.8,66.6,29.93,SSW,211,3.0,4.0,81,0.00,,---,0.00,VWS V13.01,2013-07-27 14:08:00,
2013-07-27 10:13:00,72.4,65.9,29.92,South,184,4.0,9.0,80,0.00,,---,0.00,VWS V13.01,2013-07-27 14:13:00,
2013-07-27 10:18:00,72.1,66.3,29.93,SSW,202,3.0,10.0,82,0.00,,---,0.00,VWS V13.01,2013-07-27 14:18:00,
2013-07-27 10:23:00,71.7,66.3,29.93,South,175,3.0,9.0,83,0.00,,---,0.00,VWS V13.01,2013-07-27 14:23:00,
2013-07-27 10:28:00,71.2,65.4,29.92,South,181,1.0,9.0,82,0.00,,---,0.00,VWS V13.01,2013-07-27 14:28:00,
2013-07-27 10:33:00,70.9,65.5,29.92,SSE,159,1.0,3.0,83,0.00,,---,0.00,VWS V13.01,2013-07-27 14:33:00,
2013-07-27 10:38:00,70.7,65.6,29.93,South,190,1.0,4.0,84,0.00,,---,0.00,VWS V13.01,2013-07-27 14:38:00,
2013-07-27 10:43:00,70.3,65.2,29.93,SW,219,1.0,4.0,84,0.00,,---,0.00,VWS V13.01,2013-07-27 14:43:00,
2013-07-27 10:48:00,70.0,65.6,29.93,SW,229,3.0,7.0,86,0.04,,---,0.05,VWS V13.01,2013-07-27 14:48:00,
2013-07-27 10:53:00,69.5,65.1,29.93,SSW,203,1.0,5.0,86,0.07,,---,0.07,VWS V13.01,2013-07-27 14:53:00,
2013-07-27 10:58:00,69.2,64.8,29.92,South,180,0.0,5.0,86,0.08,,---,0.08,VWS V13.01,2013-07-27 14:58:00,
2013-07-27 11:03:00,68.9,65.2,29.92,South,180,0.0,1.0,88,0.09,,---,0.09,VWS V13.01,2013-07-27 15:03:00,
2013-07-27 11:08:00,68.6,64.9,29.92,South,180,0.0,1.0,88,0.09,,---,0.09,VWS V13.01,2013-07-27 15:08:00,
2013-07-27 11:13:00,68.3,64.9,29.92,South,180,0.0,1.0,89,0.09,,---,0.09,VWS V13.01,2013-07-27 15:13:00,
2013-07-27 11:18:00,68.1,64.7,29.92,South,180,0.0,1.0,89,0.10,,---,0.10,VWS V13.01,2013-07-27 15:18:00,
2013-07-27 11:23:00,68.0,65.3,29.92,South,180,0.0,1.0,91,0.11,,---,0.11,VWS V13.01,2013-07-27 15:23:00,
2013-07-27 11:28:00,67.9,65.2,29.92,South,180,0.0,1.0,91,0.11,,---,0.11,VWS V13.01,2013-07-27 15:28:00,
2013-07-27 11:33:00,67.9,65.5,29.92,WSW,248,0.0,1.0,92,0.11,,---,0.11,VWS V13.01,2013-07-27 15:33:00,
2013-07-27 11:38:00,67.8,65.4,29.93,WSW,248,0.0,1.0,92,0.11,,---,0.12,VWS V13.01,2013-07-27 15:38:00,
2013-07-27 11:43:00,67.7,65.3,29.92,NW,309,1.0,3.0,92,0.13,,---,0.13,VWS V13.01,2013-07-27 15:43:00,
2013-07-27 11:48:00,67.7,65.6,29.92,NW,312,1.0,3.0,93,0.13,,---,0.13,VWS V13.01,2013-07-27 15:48:00,
2013-07-27 11:53:00,67.8,65.7,29.91,NNE,32,0.0,2.0,93,0.08,,---,0.13,VWS V13.01,2013-07-27 15:53:00,
2013-07-27 11:58:00,67.9,65.8,29.91,ENE,66,1.0,3.0,93,0.08,,---,0.13,VWS V13.01,2013-07-27 15:58:00,
2013-07-27 12:03:00,68.3,66.5,29.91,NE,56,0.0,3.0,94,0.05,,---,0.13,VWS V13.01,2013-07-27 16:03:00,
2013-07-27 12:08:00,68.3,66.2,29.91,NE,53,2.0,4.0,93,0.05,,---,0.13,VWS V13.01,2013-07-27 16:08:00,
2013-07-27 12:13:00,68.4,66.0,29.91,ENE,69,0.0,3.0,92,0.04,,---,0.13,VWS V13.01,2013-07-27 16:13:00,
2013-07-27 12:18:00,68.4,65.7,29.91,ENE,69,0.0,3.0,91,0.04,,---,0.13,VWS V13.01,2013-07-27 16:18:00,
2013-07-27 12:23:00,68.4,65.7,29.91,ENE,69,1.0,2.0,91,0.02,,---,0.13,VWS V13.01,2013-07-27 16:23:00,
2013-07-27 12:28:00,68.5,65.8,29.91,ENE,69,1.0,2.0,91,0.02,,---,0.13,VWS V13.01,2013-07-27 16:28:00,
2013-07-27 12:33:00,68.6,65.9,29.91,East,90,2.0,3.0,91,0.02,,---,0.13,VWS V13.01,2013-07-27 16:33:00,
2013-07-27 12:38:00,68.6,65.6,29.91,East,90,1.0,3.0,90,0.02,,---,0.13,VWS V13.01,2013-07-27 16:38:00,
2013-07-27 12:43:00,68.7,65.7,29.91,NE,48,3.0,3.0,90,0.01,,---,0.13,VWS V13.01,2013-07-27 16:43:00,
2013-07-27 12:48:00,68.8,65.8,29.91,ENE,71,0.0,4.0,90,0.01,,---,0.13,VWS V13.01,2013-07-27 16:48:00,
2013-07-27 12:53:00,68.9,65.5,29.91,ENE,71,0.0,2.0,89,0.00,,---,0.13,VWS V13.01,2013-07-27 16:53:00,
2013-07-27 12:58:00,69.2,66.2,29.91,ENE,71,0.0,2.0,90,0.00,,---,0.13,VWS V13.01,2013-07-27 16:58:00,
2013-07-27 13:03:00,69.5,65.8,29.90,ENE,71,0.0,1.0,88,0.00,,---,0.13,VWS V13.01,2013-07-27 17:03:00,
2013-07-27 13:08:00,69.8,66.1,29.90,ENE,69,1.0,1.0,88,0.00,,---,0.13,VWS V13.01,2013-07-27 17:08:00,
2013-07-27 13:13:00,70.0,66.6,29.90,NNE,32,2.0,3.0,89,0.00,,---,0.13,VWS V13.01,2013-07-27 17:13:00,
2013-07-27 13:18:00,70.1,66.4,29.90,NNE,28,0.0,3.0,88,0.00,,---,0.13,VWS V13.01,2013-07-27 17:18:00,
2013-07-27 13:23:00,70.1,66.4,29.90,NW,317,0.0,4.0,88,0.00,,---,0.13,VWS V13.01,2013-07-27 17:23:00,
2013-07-27 13:28:00,70.3,66.9,29.90,NNE,22,1.0,4.0,89,0.00,,---,0.13,VWS V13.01,2013-07-27 17:28:00,
2013-07-27 13:33:00,70.4,66.3,29.90,NNE,22,0.0,3.0,87,0.00,,---,0.13,VWS V13.01,2013-07-27 17:33:00,
2013-07-27 13:38:00,70.6,66.6,29.90,NNE,22,1.0,3.0,87,0.00,,---,0.13,VWS V13.01,2013-07-27 17:38:00,
2013-07-27 13:43:00,70.8,67.1,29.90,NNE,24,2.0,2.0,88,0.00,,---,0.13,VWS V13.01,2013-07-27 17:43:00,
2013-07-27 13:48:00,71.2,67.1,29.89,NNE,24,0.0,2.0,87,0.00,,---,0.13,VWS V13.01,2013-07-27 17:48:00,
2013-07-27 13:53:00,71.5,67.1,29.89,NNE,24,1.0,2.0,86,0.00,,---,0.13,VWS V13.01,2013-07-27 17:53:00,
2013-07-27 13:58:00,71.7,66.9,29.89,ENE,59,0.0,3.0,85,0.00,,---,0.13,VWS V13.01,2013-07-27 17:58:00,
2013-07-27 14:03:00,71.8,67.1,29.89,ENE,61,0.0,3.0,85,0.00,,---,0.13,VWS V13.01,2013-07-27 18:03:00,
2013-07-27 14:08:00,72.0,66.9,29.89,NE,48,0.0,3.0,84,0.00,,---,0.13,VWS V13.01,2013-07-27 18:08:00,
2013-07-27 14:13:00,72.2,67.4,29.89,NE,36,0.0,2.0,85,0.00,,---,0.13,VWS V13.01,2013-07-27 18:13:00,
2013-07-27 14:18:00,72.3,67.2,29.89,NE,36,1.0,3.0,84,0.00,,---,0.13,VWS V13.01,2013-07-27 18:18:00,
2013-07-27 14:23:00,72.5,67.4,29.89,NW,319,1.0,3.0,84,0.00,,---,0.13,VWS V13.01,2013-07-27 18:23:00,
2013-07-27 14:28:00,72.6,67.2,29.89,WNW,300,1.0,3.0,83,0.00,,---,0.13,VWS V13.01,2013-07-27 18:28:00,
2013-07-27 14:33:00,72.8,67.3,29.88,WNW,298,1.0,2.0,83,0.00,,---,0.13,VWS V13.01,2013-07-27 18:33:00,
2013-07-27 14:38:00,73.0,67.9,29.88,WNW,290,0.0,3.0,84,0.00,,---,0.13,VWS V13.01,2013-07-27 18:38:00,
2013-07-27 14:43:00,73.1,67.6,29.88,WNW,290,0.0,2.0,83,0.00,,---,0.13,VWS V13.01,2013-07-27 18:43:00,
2013-07-27 14:48:00,73.1,67.3,29.88,WNW,290,0.0,2.0,82,0.00,,---,0.13,VWS V13.01,2013-07-27 18:48:00,
2013-07-27 14:53:00,73.2,67.7,29.88,WNW,290,0.0,2.0,83,0.00,,---,0.13,VWS V13.01,2013-07-27 18:53:00,
2013-07-27 14:58:00,73.2,67.7,29.87,WNW,290,1.0,2.0,83,0.00,,---,0.13,VWS V13.01,2013-07-27 18:58:00,
2013-07-27 15:03:00,73.3,67.5,29.87,WNW,290,0.0,2.0,82,0.00,,---,0.13,VWS V13.01,2013-07-27 19:03:00,
2013-07-27 15:09:00,73.4,67.6,29.87,NE,34,0.0,3.0,82,0.00,,---,0.13,VWS V13.01,2013-07-27 19:09:00,
2013-07-27 15:14:00,73.5,67.7,29.87,NE,34,3.0,3.0,82,0.00,,---,0.13,VWS V13.01,2013-07-27 19:14:00,
2013-07-27 15:19:00,73.4,67.2,29.87,NE,34,1.0,3.0,81,0.00,,---,0.13,VWS V13.01,2013-07-27 19:19:00,
2013-07-27 15:24:00,73.2,67.7,29.87,NE,34,0.0,1.0,83,0.00,,---,0.13,VWS V13.01,2013-07-27 19:24:00,
2013-07-27 15:29:00,73.1,67.6,29.87,NE,34,0.0,1.0,83,0.00,,---,0.13,VWS V13.01,2013-07-27 19:29:00,
2013-07-27 15:34:00,72.9,67.8,29.87,NNE,32,0.0,3.0,84,0.00,,---,0.13,VWS V13.01,2013-07-27 19:34:00,
2013-07-27 15:39:00,72.9,68.1,29.87,South,181,0.0,4.0,85,0.01,,---,0.14,VWS V13.01,2013-07-27 19:39:00,
2013-07-27 15:44:00,72.6,67.8,29.87,South,180,0.0,1.0,85,0.02,,---,0.15,VWS V13.01,2013-07-27 19:44:00,
2013-07-27 15:49:00,72.4,67.6,29.86,South,180,0.0,1.0,85,0.03,,---,0.16,VWS V13.01,2013-07-27 19:49:00,
2013-07-27 15:54:00,72.1,68.0,29.87,South,180,2.0,2.0,87,0.03,,---,0.16,VWS V13.01,2013-07-27 19:54:00,
2013-07-27 15:59:00,71.8,68.1,29.87,South,188,0.0,2.0,88,0.03,,---,0.16,VWS V13.01,2013-07-27 19:59:00,
2013-07-27 16:04:00,71.5,68.1,29.86,South,188,0.0,1.0,89,0.03,,---,0.16,VWS V13.01,2013-07-27 20:04:00,
2013-07-27 16:09:00,71.3,68.2,29.87,South,188,0.0,1.0,90,0.03,,---,0.16,VWS V13.01,2013-07-27 20:09:00,
2013-07-27 16:14:00,71.1,68.0,29.87,NW,306,1.0,2.0,90,0.03,,---,0.16,VWS V13.01,2013-07-27 20:14:00,
2013-07-27 16:19:00,70.8,68.1,29.87,NW,308,2.0,4.0,91,0.05,,---,0.18,VWS V13.01,2013-07-27 20:19:00,
2013-07-27 16:24:00,70.4,68.0,29.88,NW,306,3.0,5.0,92,0.14,,---,0.31,VWS V13.01,2013-07-27 20:24:00,
2013-07-27 16:29:00,70.0,67.6,29.87,East,84,0.0,6.0,92,0.42,,---,0.59,VWS V13.01,2013-07-27 20:29:00,
2013-07-27 16:34:00,69.5,67.1,29.87,SW,215,2.0,2.0,92,0.48,,---,0.61,VWS V13.01,2013-07-27 20:34:00,
2013-07-27 16:39:00,69.1,66.7,29.88,SW,225,3.0,6.0,92,0.48,,---,0.61,VWS V13.01,2013-07-27 20:39:00,
2013-07-27 16:44:00,68.7,66.3,29.87,SSW,208,1.0,5.0,92,0.47,,---,0.61,VWS V13.01,2013-07-27 20:44:00,
2013-07-27 16:49:00,68.6,66.5,29.87,SSW,208,0.0,5.0,93,0.48,,---,0.62,VWS V13.01,2013-07-27 20:49:00,
2013-07-27 16:54:00,68.5,66.1,29.86,WSW,243,3.0,4.0,92,0.46,,---,0.63,VWS V13.01,2013-07-27 20:54:00,
2013-07-27 16:59:00,68.3,65.9,29.86,WSW,243,0.0,4.0,92,0.47,,---,0.63,VWS V13.01,2013-07-27 20:59:00,
2013-07-27 17:04:00,68.3,65.9,29.85,SW,214,0.0,1.0,92,0.47,,---,0.63,VWS V13.01,2013-07-27 21:04:00,
2013-07-27 17:09:00,68.4,66.3,29.85,SW,214,0.0,1.0,93,0.48,,---,0.64,VWS V13.01,2013-07-27 21:09:00,
2013-07-27 17:14:00,68.6,66.8,29.85,SW,214,0.0,0.0,94,0.48,,---,0.64,VWS V13.01,2013-07-27 21:14:00,
2013-07-27 17:19:00,68.6,66.5,29.84,SSE,168,0.0,2.0,93,0.48,,---,0.64,VWS V13.01,2013-07-27 21:19:00,
2013-07-27 17:24:00,68.7,66.6,29.85,SSE,168,0.0,1.0,93,0.46,,---,0.64,VWS V13.01,2013-07-27 21:24:00,
2013-07-27 17:29:00,68.9,66.8,29.85,SSE,153,2.0,2.0,93,0.46,,---,0.64,VWS V13.01,2013-07-27 21:29:00,
2013-07-27 17:34:00,69.2,67.4,29.84,SSE,153,0.0,2.0,94,0.05,,---,0.64,VWS V13.01,2013-07-27 21:34:00,
2013-07-27 17:39:00,69.5,67.7,29.84,SSE,152,1.0,2.0,94,0.05,,---,0.64,VWS V13.01,2013-07-27 21:39:00,
2013-07-27 17:44:00,69.6,67.5,29.83,SE,146,0.0,3.0,93,0.03,,---,0.64,VWS V13.01,2013-07-27 21:44:00,
2013-07-27 17:49:00,69.8,67.7,29.83,SE,142,1.0,3.0,93,0.03,,---,0.64,VWS V13.01,2013-07-27 21:49:00,
2013-07-27 17:54:00,69.9,67.8,29.84,SSW,192,0.0,3.0,93,0.02,,---,0.64,VWS V13.01,2013-07-27 21:54:00,
2013-07-27 17:59:00,70.1,68.0,29.84,South,186,1.0,3.0,93,0.02,,---,0.64,VWS V13.01,2013-07-27 21:59:00,
2013-07-27 18:04:00,70.3,68.2,29.83,South,186,0.0,2.0,93,0.01,,---,0.64,VWS V13.01,2013-07-27 22:04:00,
2013-07-27 18:09:00,70.6,68.2,29.83,South,186,0.0,2.0,92,0.01,,---,0.64,VWS V13.01,2013-07-27 22:09:00,
2013-07-27 18:14:00,71.1,69.0,29.83,SE,141,2.0,4.0,93,0.00,,---,0.64,VWS V13.01,2013-07-27 22:14:00,
2013-07-27 18:19:00,71.2,68.1,29.83,SE,143,3.0,4.0,90,0.00,,---,0.64,VWS V13.01,2013-07-27 22:19:00,
2013-07-27 18:24:00,71.4,68.3,29.83,SSE,163,0.0,4.0,90,0.00,,---,0.64,VWS V13.01,2013-07-27 22:24:00,
2013-07-27 18:29:00,71.5,68.1,29.83,SSE,162,0.0,4.0,89,0.00,,---,0.64,VWS V13.01,2013-07-27 22:29:00,
2013-07-27 18:34:00,71.4,68.0,29.83,SSE,162,1.0,4.0,89,0.00,,---,0.64,VWS V13.01,2013-07-27 22:34:00,
2013-07-27 18:39:00,71.3,67.9,29.83,SE,133,2.0,4.0,89,0.00,,---,0.64,VWS V13.01,2013-07-27 22:39:00,
2013-07-27 18:44:00,71.2,67.8,29.83,SSE,165,0.0,2.0,89,0.00,,---,0.64,VWS V13.01,2013-07-27 22:44:00,
2013-07-27 18:49:00,71.2,67.8,29.83,SSE,155,0.0,0.0,89,0.00,,---,0.64,VWS V13.01,2013-07-27 22:49:00,
2013-07-27 18:54:00,71.2,67.8,29.84,SSW,192,2.0,3.0,89,0.00,,---,0.64,VWS V13.01,2013-07-27 22:54:00,
2013-07-27 18:59:00,71.1,67.7,29.84,SSW,211,4.0,5.0,89,0.00,,---,0.64,VWS V13.01,2013-07-27 22:59:00,
2013-07-27 19:04:00,71.1,67.7,29.84,SSW,212,1.0,4.0,89,0.00,,---,0.64,VWS V13.01,2013-07-27 23:04:00,
2013-07-27 19:09:00,71.1,67.4,29.84,SSW,205,1.0,1.0,88,0.00,,---,0.64,VWS V13.01,2013-07-27 23:09:00,
2013-07-27 19:14:00,71.0,67.3,29.84,South,183,0.0,3.0,88,0.00,,---,0.64,VWS V13.01,2013-07-27 23:14:00,
2013-07-27 19:19:00,70.9,67.2,29.84,South,183,1.0,3.0,88,0.00,,---,0.64,VWS V13.01,2013-07-27 23:19:00,
2013-07-27 19:24:00,70.8,67.4,29.84,South,183,0.0,3.0,89,0.00,,---,0.64,VWS V13.01,2013-07-27 23:24:00,
2013-07-27 19:29:00,70.7,67.3,29.84,SSW,200,1.0,3.0,89,0.00,,---,0.64,VWS V13.01,2013-07-27 23:29:00,
2013-07-27 19:34:00,70.5,67.1,29.84,SSW,200,1.0,3.0,89,0.00,,---,0.64,VWS V13.01,2013-07-27 23:34:00,
2013-07-27 19:39:00,70.4,67.0,29.85,South,180,1.0,4.0,89,0.00,,---,0.64,VWS V13.01,2013-07-27 23:39:00,
2013-07-27 19:44:00,70.4,67.0,29.85,SSW,196,4.0,5.0,89,0.00,,---,0.64,VWS V13.01,2013-07-27 23:44:00,
2013-07-27 19:49:00,70.3,66.6,29.85,SSW,202,3.0,7.0,88,0.00,,---,0.64,VWS V13.01,2013-07-27 23:49:00,
2013-07-27 19:54:00,70.3,66.9,29.85,SSW,208,3.0,4.0,89,0.00,,---,0.64,VWS V13.01,2013-07-27 23:54:00,
2013-07-27 19:59:00,70.3,66.6,29.85,SSW,194,2.0,6.0,88,0.00,,---,0.64,VWS V13.01,2013-07-27 23:59:00,
2013-07-27 20:04:00,70.3,66.6,29.85,South,179,1.0,7.0,88,0.00,,---,0.64,VWS V13.01,2013-07-28 00:04:00,
2013-07-27 20:09:00,70.2,66.5,29.85,South,190,4.0,7.0,88,0.00,,---,0.64,VWS V13.01,2013-07-28 00:09:00,
2013-07-27 20:14:00,70.1,66.4,29.85,South,169,1.0,6.0,88,0.00,,---,0.64,VWS V13.01,2013-07-28 00:14:00,
2013-07-27 20:19:00,70.1,66.4,29.85,SSW,201,2.0,6.0,88,0.00,,---,0.64,VWS V13.01,2013-07-28 00:19:00,
2013-07-27 20:24:00,70.0,66.6,29.85,SW,214,0.0,4.0,89,0.00,,---,0.64,VWS V13.01,2013-07-28 00:24:00,
2013-07-27 20:29:00,70.0,66.9,29.85,SSW,211,1.0,4.0,90,0.00,,---,0.64,VWS V13.01,2013-07-28 00:29:00,
2013-07-27 20:34:00,69.9,66.8,29.85,SW,225,2.0,4.0,90,0.00,,---,0.64,VWS V13.01,2013-07-28 00:34:00,
2013-07-27 20:39:00,69.8,66.7,29.85,SW,223,1.0,4.0,90,0.00,,---,0.64,VWS V13.01,2013-07-28 00:39:00,
2013-07-27 20:44:00,69.7,66.6,29.85,SW,225,1.0,4.0,90,0.00,,---,0.64,VWS V13.01,2013-07-28 00:44:00,
2013-07-27 20:49:00,69.6,66.5,29.85,SW,225,0.0,4.0,90,0.00,,---,0.64,VWS V13.01,2013-07-28 00:49:00,
2013-07-27 20:54:00,69.5,66.4,29.85,South,188,1.0,3.0,90,0.00,,---,0.64,VWS V13.01,2013-07-28 00:54:00,
2013-07-27 20:59:00,69.4,66.3,29.84,South,188,0.0,3.0,90,0.00,,---,0.64,VWS V13.01,2013-07-28 00:59:00,
2013-07-27 21:04:00,69.3,66.6,29.84,South,188,0.0,2.0,91,0.00,,---,0.64,VWS V13.01,2013-07-28 01:04:00,
2013-07-27 21:09:00,69.2,66.5,29.84,South,188,0.0,2.0,91,0.00,,---,0.64,VWS V13.01,2013-07-28 01:09:00,
2013-07-27 21:14:00,69.1,66.7,29.85,South,188,0.0,0.0,92,0.00,,---,0.64,VWS V13.01,2013-07-28 01:14:00,
2013-07-27 21:19:00,69.0,66.6,29.85,South,188,0.0,1.0,92,0.00,,---,0.64,VWS V13.01,2013-07-28 01:19:00,
2013-07-27 21:24:00,68.9,66.5,29.85,South,188,0.0,0.0,92,0.00,,---,0.64,VWS V13.01,2013-07-28 01:24:00,
2013-07-27 21:29:00,68.7,66.3,29.85,South,188,0.0,1.0,92,0.00,,---,0.64,VWS V13.01,2013-07-28 01:29:00,
2013-07-27 21:34:00,68.5,66.1,29.85,South,188,0.0,0.0,92,0.00,,---,0.64,VWS V13.01,2013-07-28 01:34:00,
2013-07-27 21:39:00,68.4,66.0,29.85,South,188,0.0,0.0,92,0.00,,---,0.64,VWS V13.01,2013-07-28 01:39:00,
2013-07-27 21:44:00,68.3,65.9,29.85,South,188,0.0,0.0,92,0.00,,---,0.64,VWS V13.01,2013-07-28 01:44:00,
2013-07-27 21:49:00,68.2,65.8,29.85,South,188,0.0,0.0,92,0.00,,---,0.64,VWS V13.01,2013-07-28 01:49:00,
2013-07-27 21:54:00,68.2,66.1,29.85,South,188,0.0,0.0,93,0.00,,---,0.64,VWS V13.01,2013-07-28 01:54:00,
2013-07-27 21:59:00,68.1,66.0,29.85,South,188,0.0,0.0,93,0.00,,---,0.64,VWS V13.01,2013-07-28 01:59:00,
2013-07-27 22:04:00,68.1,66.0,29.85,South,188,0.0,0.0,93,0.00,,---,0.64,VWS V13.01,2013-07-28 02:04:00,
2013-07-27 22:09:00,68.0,66.2,29.85,South,188,0.0,1.0,94,0.00,,---,0.64,VWS V13.01,2013-07-28 02:09:00,
2013-07-27 22:14:00,67.9,65.8,29.85,South,188,0.0,0.0,93,0.00,,---,0.64,VWS V13.01,2013-07-28 02:14:00,
2013-07-27 22:19:00,67.9,65.8,29.85,South,188,0.0,0.0,93,0.00,,---,0.64,VWS V13.01,2013-07-28 02:19:00,
2013-07-27 22:24:00,67.8,66.0,29.85,South,188,0.0,1.0,94,0.01,,---,0.65,VWS V13.01,2013-07-28 02:24:00,
2013-07-27 22:29:00,67.8,66.0,29.85,South,188,0.0,1.0,94,0.01,,---,0.65,VWS V13.01,2013-07-28 02:29:00,
2013-07-27 22:34:00,67.8,66.0,29.85,South,188,0.0,0.0,94,0.01,,---,0.65,VWS V13.01,2013-07-28 02:34:00,
2013-07-27 22:39:00,67.8,66.0,29.85,South,188,0.0,0.0,94,0.01,,---,0.65,VWS V13.01,2013-07-28 02:39:00,
2013-07-27 22:44:00,67.7,65.9,29.85,South,188,0.0,0.0,94,0.01,,---,0.65,VWS V13.01,2013-07-28 02:44:00,
2013-07-27 22:49:00,67.8,66.0,29.85,South,188,0.0,0.0,94,0.01,,---,0.65,VWS V13.01,2013-07-28 02:49:00,
2013-07-27 22:54:00,67.8,66.0,29.85,South,188,0.0,0.0,94,0.01,,---,0.65,VWS V13.01,2013-07-28 02:54:00,
2013-07-27 22:59:00,67.8,66.3,29.85,South,188,0.0,0.0,95,0.01,,---,0.65,VWS V13.01,2013-07-28 02:59:00,
2013-07-27 23:04:00,67.9,66.4,29.85,South,188,0.0,1.0,95,0.01,,---,0.65,VWS V13.01,2013-07-28 03:04:00,
2013-07-27 23:09:00,68.0,66.5,29.85,South,188,2.0,2.0,95,0.01,,---,0.65,VWS V13.01,2013-07-28 03:09:00,
2013-07-27 23:14:00,68.0,66.5,29.85,SSW,192,0.0,3.0,95,0.01,,---,0.65,VWS V13.01,2013-07-28 03:14:00,
2013-07-27 23:19:00,68.0,66.5,29.85,SW,225,2.0,3.0,95,0.01,,---,0.65,VWS V13.01,2013-07-28 03:19:00,
2013-07-27 23:24:00,68.0,66.5,29.85,SSW,206,3.0,5.0,95,0.01,,---,0.65,VWS V13.01,2013-07-28 03:24:00,
2013-07-27 23:29:00,68.0,66.5,29.85,SSW,209,2.0,7.0,95,0.01,,---,0.65,VWS V13.01,2013-07-28 03:29:00,
2013-07-27 23:34:00,68.0,66.2,29.85,SW,227,2.0,6.0,94,0.00,,---,0.65,VWS V13.01,2013-07-28 03:34:00,
2013-07-27 23:39:00,68.1,66.3,29.85,SW,215,3.0,6.0,94,0.00,,---,0.65,VWS V13.01,2013-07-28 03:39:00,
2013-07-27 23:44:00,68.1,66.3,29.85,SW,229,5.0,6.0,94,0.00,,---,0.65,VWS V13.01,2013-07-28 03:44:00,
2013-07-27 23:49:00,68.2,66.4,29.85,SW,230,2.0,6.0,94,0.00,,---,0.65,VWS V13.01,2013-07-28 03:49:00,
2013-07-27 23:54:00,68.2,66.4,29.85,SW,221,4.0,8.0,94,0.00,,---,0.65,VWS V13.01,2013-07-28 03:54:00,
2013-07-27 23:59:00,68.1,66.0,29.85,SW,225,2.0,8.0,93,0.00,,---,0.65,VWS V13.01,2013-07-28 03:59:00,